Location: *
(45.9500°N, 9.0833°E)
Time: 23:21:53
(UTC+00:00)

Tiros 1 despin weight - Pass Details

Date: 23 June 2021
Orbit: 593 x 642 km, 48.2° (Epoch: 02 August)

Event Time Altitude Azimuth Distance (km) Brightness Sun altitude
Rises 04:47:19 0° 246° (WSW) 2,830 ? 10.3°
Reaches altitude 10° 04:49:37 10° 245° (WSW) 1,926 ? 10.7°
Maximum altitude 04:54:01 80° 159° (SSE) 607 ? 11.4°
Drops below altitude 10° 04:58:26 10° 73° (ENE) 1,925 ? 12.1°
Sets 05:00:43 0° 72° (ENE) 2,829 ? 12.5°
